Terminal Aerodrome Forecast
Issued by NWS Spokane, WA

Home | Current Version | Previous Version | Text Only | Print | Product List | Glossary On
Versions: 1 2 3 4 5 6 7 8 9 10 11 12 13 14 15 16 17 18 19 20 21 22 23 24 25 26 27 28 29 30
000
FTUS46 KOTX 221152
TAFLWS
TAF
KLWS 221152Z 2212/2312 12005KT P6SM -SHRA VCTS SCT090CB BKN200
     FM221500 29003KT P6SM SCT060 BKN200
     FM222200 33008KT P6SM VCTS SCT070CB BKN100
     FM230300 15006KT P6SM VCSH SCT080 BKN150=

USA.gov is the U.S. government's official web portal to all federal, state and local government web resources and services.